Location: Highridge
(54.0333°N, 114.1333°W)
Time: 06:38:44
(UTC+00:00)

SO-50 - Pass Details

Date: 09 December 2023
Orbit: 608 x 660 km, 64.6° (Epoch: 02 March)

Event Time Altitude Azimuth Distance (km) Brightness Sun altitude
Exits shadow 12:54:02 27° 357° (N) 1,254 ? -23.3°
Drops below altitude 10° 12:57:17 10° 41° (NE) 2,033 ? -22.8°
Sets 12:59:51 0° 53° (NE) 2,932 ? -22.5°
